Location: *
(51.1248°S, 108.4023°W)
Time: 09:30:16
(UTC+00:00)

Envisat - Pass Details

Date: 03 October 2021
Orbit: 764 x 766 km, 98.2° (Epoch: 27 October)

Event Time Altitude Azimuth Distance (km) Brightness Sun altitude
Rises 11:06:37 0° 21° (NNE) 3,233 6.2 -14.3°
Reaches altitude 10° 11:08:54 10° 23° (NNE) 2,314 5.5 -14.0°
Maximum altitude 11:14:00 77° 107° (ESE) 803 3.2 -13.3°
Drops below altitude 10° 11:19:11 10° 192° (SSW) 2,344 5.7 -12.5°
Sets 11:21:31 0° 193° (SSW) 3,278 6.4 -12.2°
